Location: Saint Louis
(38.6272°N, 90.1978°W)
Time: 15:48:40
(UTC-05:00)

ISS - Pass Details

Date: 13 December 2013
Orbit: 402 x 404 km, 51.6° (Epoch: 25 May)

Event Time Altitude Azimuth Distance (km) Brightness Sun altitude
Rises 17:21:24 0° 255° (WSW) 2,307 2.8 -8.1°
Reaches altitude 10° 17:23:39 10° 266° (W) 1,449 0.8 -8.5°
Maximum altitude 17:26:32 29° 330° (NNW) 765 -1.9 -9.0°
Drops below altitude 10° 17:29:27 10° 33° (NNE) 1,457 -1.0 -9.5°
Enters shadow 17:29:32 10° 34° (NNE) 1,486 -1.0 -9.5°
